Location: St. Louis
(38.6270°N, 90.1994°W)
Time: 14:51:23
(UTC-06:00)

BEESAT 3 - Visible Passes

Search period start: 21 January 2022 00:00
Search period end: 31 January 2022 00:00
Orbit: 473 x 512 km, 64.9° (Epoch: 21 January)

Date Brightness Start Highest point End Pass type
(mag) Time Alt. Az. Time Alt. Az. Time Alt. Az.
21 Jan ? 05:22:12 31° S 05:23:51 65° ESE 05:27:38 10° NE visible
22 Jan ? 05:01:25 45° ENE 05:01:25 45° ENE 05:04:24 10° NE visible
22 Jan ? 06:36:08 10° WNW 06:38:08 14° NW 06:40:09 10° NNW visible
23 Jan ? 04:40:03 18° NE 04:40:03 18° NE 04:41:09 10° NE visible
23 Jan ? 06:14:36 16° NW 06:14:52 16° NW 06:17:15 10° N visible
24 Jan ? 05:52:52 15° NNW 05:52:52 15° NNW 05:54:16 10° N visible
25 Jan ? 05:30:53 12° N 05:30:53 12° N 05:31:14 10° N visible
